Погода Новоанненский

Погода Новоанненский : погода сейчас, прогноз погоды и архив. Всё, что Вы хотите узнать о погоде Новоанненский!

Поиск расширенной информации на нашем сайте:

Другие новости

Новости СМИ2

Главная страница сайта

Новости сайта

02.10.2013

Напоминаем, что на нашем новом сайте вы можете получить высокодетализированные прогнозы погоды по пунктам России, СНГ и мира (включающие важные для авиации метеовеличины, такие как направление и скорость ветра, видимость, явления погоды, количество и форма облачности, нижняя и верхняя граница облачности), а также ознакомиться с разнообразными материалами по авиационной метеорологии и подборкой полезных ссылок на эту тему.

Сайт Метеоцентр.Азия посвящён разработке технологий оптимизации авиаметеорологического обслуживания, включая проектирование и перспективное создание нескольких автоматизированных авиаметеорологических систем:
- система выпуска высокодетальных прогностических карт явлений погоды для нижнего воздушного пространства по России и ближнему зарубежью;
- система верификации прогнозов TAF (выпускаемых синоптиками официальных АМСГ РФ и ближнего зарубежья) и AUTOTAF (выпускаемых сайтом Метеоцентр.Азия) - выявление ошибок, онлайн-сопоставление с фактической погодой METAR, автоматическое внесение коррективов в прогнозы при резком отклонении фактической погоды от прогноза, подсчёт оправдываемости прогнозов по элементам и в целом;
- система обработки, анализа и отображения авиаметеорологической информации для применения провайдерами метеорологической информации.

Рекомендуем: Скупка авто с пробегом выкуп автомобиля авто с пробегом.

Погода Новоанненский - сегодня

Время (UTC), дата Ветер
(°,м/с) 
Видим.   Явления Облачность Т
(°С)
Тd
(°С)
f(%) Тe
(°С)
Pmin
(гПа)
dP
(гПа)
Po
(мм)
O2
(г/м3)
Тmin Tmax R s Состояние
почвы
06 23.05.17 360 (С) 20000 м    3/3 1000 м 
[Cu med, cong]
+13.1 +14.9 100 +21  1015.3  1.6  760  289           
09 23.05.17 050 (СВ) 20000 м    5/5 1000 м 
[Cu med, cong]
+15.1 +1.9 41 +15  1015.9  0.7  753  287           
12 23.05.17 360 (С) 20000 м    5/5 1000 м 
[Cu med, cong]
+16.2 +4.3 45 +17  1015.6  -0.2  753  286           
15 23.05.17 270 (З) 20000 м    6/6 600 м 
[Cu med, cong]
+17 +7 52 +17  1015.1  -0.5  753  284    +17       
18 23.05.17 170 (Ю) 20000 м    6/6 600 м 
[Cu med, cong]
+11.3 +3.9 60 +12  1016.5  1.1  754  291           
21 23.05.17 190 (Ю) 20000 м    6/0 верхняя 
[Ci fib]
+9.2 +4.3 71 +9  1017.3  0.7  754  293           
00 24.05.17 180 (Ю) 20000 м    5/0 верхняя 
[Ci fib]
+19.1 +4.1 37 +20  1017.6  0.3  754  283           
03 24.05.17 180 (Ю) 20000 м    8/8 600 м 
[Cu med, cong]
+11.1 +7.1 76 +11  1017.5  754  291  +8.8        влажная 
06 24.05.17 230 (ЮЗ) 20000 м    8/6 600 м верхняя 
[Cu hum|Ci]
+16.4 +9.5 64 +17  1017.6  0.3  755  285           
09 24.05.17 230 (ЮЗ) 20000 м    6/4 1000 м верхняя 
[Cu hum|Ci sp]
+21.5 +7.8 41 +22  1017.1  -0.3  754  280           
12 24.05.17 240 (ЮЗ) 20000 м    8/8 600 м 
[Sc diur, vesp]
+23.9 +5.5 30 +24  1016.3  -0.7  754  278           
15 24.05.17 240 (ЮЗ) 20000 м    8/8 600 м 
[Sc diur, vesp]
+23.9 +6.4 32 +24  1015.7  -0.6  753  278    +24.2       
18 24.05.17 170 (Ю) 20000 м    8/8 600 м 
[Sc diur, vesp]
+17.2 +9.8 62 +19  1017.7  1.7  755  284           
21 24.05.17 180 (Ю) 20000 м    10/10 600 м верхняя 
[Ci]
+14.8 +10.4 75 +18  1017.7  755  287           
00 25.05.17 190 (Ю) н/о    н/о 
+13.2 +8.8 75 +14  1017.7  -0.1  755  288           
03 25.05.17 190 (Ю) 20000 м    8/6 600 м верхняя 
[Cu hum|Ci sp]
+14 +8.9 71 +15  1017.7  755  288  +11.9        влажная 
06 25.05.17 210 (ЮЗ) 20000 м    8/6 600 м верхняя 
[Cu med, cong|Ci fib]
+20.3 +9.8 51 +21  1017.7  0.3  755  281           
09 25.05.17 280 (З) 20000 м    4/4 1000 м 
[Cu med, cong]
+22.9 +9.2 42 +23  1017.6  0.1  755  279           
12 25.05.17 220 (ЮЗ) 20000 м    8/6 600 м верхняя 
[Cu med, cong|Ci]
+22.3 +10.1 46 +24  1016.4  -1.2  754  279           
15 25.05.17 280 (З) 20000 м    8/8 600 м 
[Sc diur, vesp]
+22.8 +9 41 +23  1016.1  -0.3  754  279    +24.4       
18 25.05.17 010 (С) 4000 м  слаб. ливневой дождь  10/10 600 м кучево-дожд. 
[Cb cap]
+14.9 +11.7 81 +19  1017.2  0.8  754  286           
21 25.05.17 тихо ()   20000 м  {ливн. осадки}  8/6 600 м верхняя 
[Sc diur, vesp|Ci fib]
+13.7 +10.3 80 +15  1016.9  -0.4  754  287           
00 26.05.17 130 (ЮВ) 20000 м  {ливн. осадки}  8/8 600 м 
[Sc diur, vesp]
+13.6 +10.6 82 +17  1016.5  -0.4  754  287           
03 26.05.17 170 (Ю) 20000 м    6/4 600 м верхняя 
[Cu hum|Ci]
+14 +10.9 82 +17  1016.1  -0.4  753  287  +12.7    0.5    влажная 
06 26.05.17 240 (ЮЗ) 20000 м    4/3 1000 м верхняя 
[Cu hum|Ci fib]
+20.1 +11.8 59 +24  1015.3  -0.5  753  280           
Время (UTC), дата Ветер
(°,м/с) 
Видим.   Явления Облачность Т
(°С)
Тd
(°С)
f(%) Тe
(°С)
Pmin
(гПа)
dP
(гПа)
Po
(мм)
O2
(г/м3)
Тmin Tmax R s Состояние
почвы

Для получения пояснительной информации подведите курсор к названию столбца.

ПОГОДА Новоанненский - архив

Всё, что Вы хотите узнать о погоде Новоанненский - удобно и подробно!

Выберите нужную дату (начиная с 1 января 2015* года) и нажмите кнопку "Найти".
Будут отображены архивные сводки погоды по пункту Новоанненский, начиная с указанной даты.


Отображать данные в формате CSV (для использования в таблицах Excel)


Внимание! Наш архив погоды предназначен исключительно для личного некоммерческого использования в познавательных целях. Если Вам необходимы официальные справки о состоянии погоды (для производственных, юридических, коммерческих и т.п. целей), обращайтесь в органы Росгидромета.

*Примечание: данная дата относится к архиву по метеостанциям СССР (Россия, СНГ, Балтия).
Архив по метеостанциям Зарубежной Европы и Азии (кроме Китая) хранится 10 дней, по другим регионам земного шара (Китай, Африка, Америка, Австралия, Океания) - 1 день.

Новоанненский - район местоположения метеостанции


Название, широта, долгота, высота метеостанции:
Новоанненский 50.5°ш. 42.7°д. 98 м над ур. моря [Российская Федерация]

Дополнительная информация

В oтличие oт бoльшинства пoгoдных сайтoв мы публикуем пoдрoбную метеoинфoрмацию в детальнoм прoфессиoнальнoм фoрмате.

Характеристики температуры и влажнoсти вoздуха измеряются на высoте 2 м в тени вдали oт зданий и деревьев.
Скoрoсть ветра измеряется на высoте 10 м (на урoвне рoста челoвека скoрoсть ветра ниже в 1.5-2 раза). Если метеoстанция нахoдится в гoрoде или в лесу, тo скoрoсть ветра занижена на 2-4 м/с пo сравнению с oткрытым местoм. Скoрoсть ветра над акватoриями крупных рек и oзёр, а также на вершинах хoлмoв на 2-5 м/с выше, чем в oбычных услoвиях.
Атмoсфернoе давление в разных тoчках местнoсти мoжет значительнo oтличаться oт давления на метеoстанции, в зависимoсти oт услoвий рельефа (при пoдъёме на 10 м давление пoнижается примернo на 1 мм рт.ст.).